FW9314 Weather Reports


time (UTC)temp
C
wind
direction
speed
KPH
gust
KPH
rain 1hr
cm
rain 24hr
cm
rain mn
cm
humidity
%
barometer
mb
20260505101058 12 58 4.8 9.7 0.00 0.00 0.00 51 1008.3
20260505100558 12 82 3.2 9.7 0.00 0.00 0.00 50 1008.7
20260505100057 12 46 3.2 11.3 0.00 0.00 0.00 50 1009.0
20260505095558 12 324 1.6 12.9 0.00 0.00 0.00 50 1009.1
20260505095057 12 51 6.4 16.1 0.00 0.00 0.00 49 1009.3
20260505094555 12 75 6.4 16.1 0.00 0.00 0.00 49 1009.1
20260505094058 12 20 3.2 17.7 0.00 0.00 0.00 49 1009.0
20260505093558 12 4 4.8 17.7 0.00 0.00 0.00 49 1009.1
20260505093059 12 30 3.2 14.5 0.00 0.00 0.00 49 1009.4
20260505092556 12 54 1.6 14.5 0.00 0.00 0.00 49 1009.2
20260505092058 12 49 4.8 14.5 0.00 0.00 0.00 49 1008.8
20260505091603 12 41 4.8 9.7 0.00 0.00 0.00 49 1009.0
20260505091102 12 58 3.2 8.0 0.00 0.00 0.00 49 1009.1
20260505090557 12 63 1.6 8.0 0.00 0.00 0.00 48 1009.1
20260505090056 13 353 3.2 9.7 0.00 0.00 0.00 48 1009.1
20260505085558 13 32 1.6 11.3 0.00 0.00 0.00 47 1009.2
20260505085057 13 16 3.2 11.3 0.00 0.00 0.00 47 1009.1
20260505084557 13 70 3.2 9.7 0.00 0.00 0.00 47 1008.9
20260505084059 13 55 1.6 9.7 0.00 0.00 0.00 47 1009.0
20260505083641 13 46 3.2 9.7 0.00 0.00 0.00 46 1008.9
20260505083058 13 67 1.6 12.9 0.00 0.00 0.00 46 1008.7
20260505082557 13 34 1.6 12.9 0.00 0.00 0.00 46 1008.7
20260505082058 13 39 1.6 16.1 0.00 0.00 0.00 46 1008.5
20260505081605 13 338 3.2 16.1 0.00 0.00 0.00 46 1008.3
20260505081057 13 67 3.2 12.9 0.00 0.00 0.00 45 1007.8
20260505080557 13 19 1.6 16.1 0.00 0.00 0.00 45 1007.9
20260505080058 13 329 6.4 16.1 0.00 0.00 0.00 45 1007.5
20260505075557 13 36 4.8 9.7 0.00 0.00 0.00 45 1007.5
20260505075058 13 39 3.2 9.7 0.00 0.00 0.00 46 1007.5
20260505074559 13 32 1.6 9.7 0.00 0.00 0.00 46 1007.5
20260505074057 13 72 3.2 12.9 0.00 0.00 0.00 46 1007.4
20260505073558 13 16 3.2 14.5 0.00 0.00 0.00 46 1007.8
20260505073111 13 5 4.8 14.5 0.00 0.00 0.00 47 1007.7
20260505072558 13 46 1.6 12.9 0.00 0.00 0.00 47 1007.6
20260505072057 13 39 3.2 12.9 0.00 0.00 0.00 47 1007.6
20260505071600 13 36 1.6 14.5 0.00 0.00 0.00 47 1007.5
20260505071058 13 51 4.8 17.7 0.00 0.00 0.00 47 1007.6
20260505070559 14 4 8.0 17.7 0.00 0.00 0.00 46 1007.8
20260505070058 14 340 4.8 12.9 0.00 0.00 0.00 46 1008.0
20260505065558 14 58 3.2 12.9 0.00 0.00 0.00 47 1008.2
20260505065058 14 97 3.2 14.5 0.00 0.00 0.00 47 1008.4
20260505064558 14 55 1.6 16.1 0.00 0.00 0.00 47 1008.5
20260505064057 14 32 4.8 16.1 0.00 0.00 0.00 47 1008.5
20260505063558 14 65 4.8 19.3 0.00 0.00 0.00 48 1008.0
20260505063059 14 337 6.4 19.3 0.00 0.00 0.00 48 1007.6
20260505062558 14 70 6.4 17.7 0.00 0.00 0.00 48 1007.8
20260505062058 14 76 4.8 9.7 0.00 0.00 0.00 49 1008.5
20260505061609 14 335 1.6 4.8 0.00 0.00 0.00 52 1009.0
20260505061058 15 0 1.6 4.8 0.00 0.00 0.00 53 1008.6
20260505060558 15 20 0.0 4.8 0.00 0.00 0.00 52 1008.0
20260505060059 15 59 1.6 8.0 0.00 0.00 0.00 51 1008.0
20260505055600 15 330 1.6 8.0 0.00 0.00 0.00 50 1008.1
20260505055058 16 78 1.6 11.3 0.00 0.00 0.00 48 1007.9
20260505054626 16 354 1.6 16.1 0.00 0.00 0.00 45 1007.1
20260505054057 17 358 4.8 16.1 0.00 0.00 0.00 43 1006.6
20260505053557 17 64 6.4 16.1 0.00 0.00 0.00 40 1006.2
20260505053113 17 39 6.4 17.7 0.00 0.00 0.00 40 1006.0
20260505052558 17 25 6.4 19.3 0.00 0.00 0.00 40 1005.9
20260505052058 17 78 8.0 19.3 0.00 0.00 0.00 40 1005.7
20260505051600 18 357 6.4 14.5 0.00 0.00 0.00 39 1005.5
20260505051059 18 57 4.8 9.7 0.00 0.00 0.00 39 1005.2
20260505050558 18 340 3.2 16.1 0.00 0.00 0.00 40 1005.1
20260505050105 18 41 6.4 17.7 0.00 0.00 0.00 40 1005.0
20260505041601 20 27 4.8 11.3 0.00 0.00 0.00 38 1004.6
20260505041055 20 39 3.2 12.9 0.00 0.00 0.00 38 1004.4
20260505040557 20 50 3.2 19.3 0.00 0.00 0.00 38 1004.3
20260505040101 20 22 1.6 22.5 0.00 0.00 0.00 38 1004.1
20260505035557 21 30 4.8 22.5 0.00 0.00 0.00 38 1004.4
20260505035058 21 341 3.2 12.9 0.00 0.00 0.00 38 1004.5
20260505034559 21 61 4.8 11.3 0.00 0.00 0.00 39 1004.4
20260505034057 21 58 3.2 12.9 0.00 0.00 0.00 39 1004.3
20260505033558 22 18 3.2 14.5 0.00 0.00 0.00 39 1004.2
20260505033100 22 67 4.8 14.5 0.00 0.00 0.00 39 1004.2
20260505032557 22 83 4.8 14.5 0.00 0.00 0.00 39 1004.0
20260505032058 22 51 3.2 12.9 0.00 0.00 0.00 41 1003.9
20260505031610 22 29 3.2 12.9 0.00 0.00 0.00 43 1003.9
20260505031057 22 353 3.2 12.9 0.00 0.00 0.00 44 1003.7
20260505030557 21 64 3.2 12.9 0.00 0.00 0.00 51 1003.8
20260505030059 21 58 1.6 12.9 0.00 0.00 0.00 54 1003.5
20260505025558 20 49 3.2 6.4 0.00 0.00 0.00 62 1003.5
20260505025056 20 19 1.6 4.8 0.00 0.00 0.00 67 1003.2
20260505024601 20 41 0.0 4.8 0.00 0.00 0.00 70 1003.1
20260505024101 20 354 0.0 1.6 0.00 0.00 0.00 70 1002.8
20260505023558 20 0 0.0 0.0 0.00 0.00 0.00 68 1002.6
20260505023120 21 0 0.0 0.0 0.00 0.00 0.00 67 1002.5
20260505022558 21 0 0.0 1.6 0.00 0.00 0.00 67 1002.4
20260505022058 21 0 0.0 1.6 0.00 0.00 0.00 67 1002.3
20260505021559 21 0 0.0 1.6 0.00 0.00 0.00 67 1002.3
20260505021057 21 256 0.0 1.6 0.00 0.00 0.00 68 1002.3
20260505020557 21 0 0.0 1.6 0.00 0.00 0.00 68 1002.2
20260505020057 21 0 0.0 0.0 0.00 0.00 0.00 67 1002.0
20260505015609 21 0 0.0 0.0 0.00 0.00 0.00 66 1002.0
20260505015058 21 0 0.0 0.0 0.00 0.00 0.00 65 1001.8
20260505014608 21 0 0.0 0.0 0.00 0.00 0.00 64 1001.7
20260505014057 22 0 0.0 0.0 0.00 0.00 0.00 62 1001.7
20260505013558 22 0 0.0 0.0 0.00 0.00 0.00 62 1001.7
20260505013110 22 0 0.0 0.0 0.00 0.00 0.00 62 1001.6
20260505012558 22 0 0.0 0.0 0.00 0.00 0.00 61 1001.7
20260505012057 22 0 0.0 0.0 0.00 0.00 0.00 61 1001.6
20260505011600 22 0 0.0 0.0 0.00 0.00 0.00 60 1001.5
20260505011057 23 0 0.0 0.0 0.00 0.00 0.00 59 1001.5
20260505010557 23 0 0.0 0.0 0.00 0.00 0.00 57 1001.4
20260505005558 23 0 0.0 0.0 0.00 0.00 0.00 56 1001.3
20260505005058 24 0 0.0 0.0 0.00 0.00 0.00 55 1001.5
20260505004559 24 0 0.0 0.0 0.00 0.00 0.00 54 1001.4
20260505004101 24 0 0.0 1.6 0.00 0.00 0.00 53 1001.4
20260505003557 25 0 0.0 1.6 0.00 0.00 0.00 53 1001.5
20260505003100 25 0 0.0 1.6 0.00 0.00 0.00 52 1001.4
20260505002559 25 0 0.0 1.6 0.00 0.00 0.00 50 1001.4
20260505002058 25 0 0.0 1.6 0.00 0.00 0.00 50 1001.5
20260505001606 26 162 0.0 8.0 0.00 0.00 0.00 49 1001.4
20260505001058 26 0 0.0 8.0 0.00 0.00 0.00 49 1001.4
20260505000557 26 0 0.0 8.0 0.00 0.00 0.00 47 1001.4
20260505000116 26 0 0.0 1.6 0.00 0.00 0.00 47 1001.5
20260504235558 26 0 0.0 1.6 0.00 0.00 0.00 46 1001.5
20260504235058 26 0 0.0 1.6 0.00 0.00 0.00 45 1001.6
20260504234558 26 0 0.0 4.8 0.00 0.00 0.00 44 1001.4
20260504234057 27 0 0.0 4.8 0.00 0.00 0.00 43 1001.5
20260504233557 27 0 1.6 4.8 0.00 0.00 0.00 42 1001.6
20260504233101 27 39 0.0 6.4 0.00 0.00 0.00 43 1001.5
20260504232558 27 124 1.6 6.4 0.00 0.00 0.00 42 1001.6
20260504232100 27 207 1.6 6.4 0.00 0.00 0.00 42 1001.6
20260504231557 27 0 1.6 4.8 0.00 0.00 0.00 41 1001.6
20260504231057 27 0 0.0 6.4 0.00 0.00 0.00 43 1001.6
20260504230558 27 118 0.0 6.4 0.00 0.00 0.00 42 1001.4
20260504230108 27 155 0.0 3.2 0.00 0.00 0.00 42 1001.5
20260504225558 27 143 0.0 3.2 0.00 0.00 0.00 41 1001.5
20260504225158 27 147 0.0 8.0 0.00 0.00 0.00 41 1001.4
20260504224600 27 0 1.6 8.0 0.00 0.00 0.00 42 1001.4
20260504224058 28 166 1.6 6.4 0.00 0.00 0.00 40 1001.3
20260504223558 28 0 0.0 4.8 0.00 0.00 0.00 39 1001.3
20260504223105 28 159 0.0 8.0 0.00 0.00 0.00 39 1001.4
20260504222558 28 0 1.6 8.0 0.00 0.00 0.00 36 1001.3
20260504222058 29 141 0.0 8.0 0.00 0.00 0.00 34 1001.2
20260504221608 29 104 0.0 8.0 0.00 0.00 0.00 35 1001.3
20260504221058 30 246 1.6 8.0 0.00 0.00 0.00 35 1001.2
20260504220557 29 167 3.2 8.0 0.00 0.00 0.00 36 1001.3
20260504220101 30 257 1.6 8.0 0.00 0.00 0.00 34 1001.3
20260504215559 30 122 1.6 8.0 0.00 0.00 0.00 36 1001.3
20260504215057 30 122 1.6 8.0 0.00 0.00 0.00 36 1001.3
20260504214600 30 128 1.6 8.0 0.00 0.00 0.00 37 1001.4
20260504214057 29 175 1.6 6.4 0.00 0.00 0.00 38 1001.4
20260504213558 30 102 1.6 4.8 0.00 0.00 0.00 38 1001.5
20260504213105 30 165 0.0 4.8 0.00 0.00 0.00 40 1001.7
20260504212558 29 120 0.0 6.4 0.00 0.00 0.00 40 1001.6
20260504212100 29 95 1.6 8.0 0.00 0.00 0.00 39 1001.5
20260504211614 29 283 1.6 8.0 0.00 0.00 0.00 42 1001.5
20260504211057 29 173 0.0 4.8 0.00 0.00 0.00 41 1001.6
20260504210557 29 352 1.6 4.8 0.00 0.00 0.00 40 1001.7
20260504210059 29 89 0.0 6.4 0.00 0.00 0.00 41 1001.7
20260504205706 29 102 0.0 6.4 0.00 0.00 0.00 40 1001.8
20260504205100 30 124 0.0 3.2 0.00 0.00 0.00 37 1001.9
20260504204603 30 0 1.6 3.2 0.00 0.00 0.00 35 1001.9
20260504204059 30 0 0.0 3.2 0.00 0.00 0.00 34 1001.9
20260504203600 29 0 0.0 6.4 0.00 0.00 0.00 33 1002.0
20260504203107 29 204 0.0 6.4 0.00 0.00 0.00 37 1002.1
20260504202557 29 143 0.0 4.8 0.00 0.00 0.00 35 1002.2
20260504202058 29 307 0.0 4.8 0.00 0.00 0.00 39 1002.2
20260504201600 29 167 0.0 8.0 0.00 0.00 0.00 36 1002.1
20260504201102 29 0 0.0 8.0 0.00 0.00 0.00 36 1002.3
20260504200558 29 270 1.6 8.0 0.00 0.00 0.00 33 1002.3
20260504200058 30 288 0.0 4.8 0.00 0.00 0.00 35 1002.4
20260504195558 30 155 0.0 6.4 0.00 0.00 0.00 37 1002.4
20260504195057 29 0 0.0 8.0 0.00 0.00 0.00 35 1002.4
20260504194559 29 287 1.6 8.0 0.00 0.00 0.00 33 1002.3
20260504194057 30 224 1.6 8.0 0.00 0.00 0.00 36 1002.2
20260504193557 30 0 0.0 8.0 0.00 0.00 0.00 34 1002.3
20260504193102 30 0 1.6 8.0 0.00 0.00 0.00 35 1002.4
20260504192600 30 308 1.6 6.4 0.00 0.00 0.00 37 1002.3
20260504192059 30 215 1.6 6.4 0.00 0.00 0.00 37 1002.3
20260504191608 30 160 3.2 6.4 0.00 0.00 0.00 35 1002.3
20260504191058 30 219 1.6 4.8 0.00 0.00 0.00 36 1002.3
20260504190558 30 298 0.0 4.8 0.00 0.00 0.00 34 1002.2
20260504190117 29 153 1.6 6.4 0.00 0.00 0.00 31 1002.5
20260504185557 29 294 0.0 6.4 0.00 0.00 0.00 34 1002.4
20260504185057 28 259 0.0 6.4 0.00 0.00 0.00 35 1002.3
20260504184558 28 287 1.6 6.4 0.00 0.00 0.00 33 1002.2
20260504184058 28 312 0.0 9.7 0.00 0.00 0.00 37 1002.4
20260504183600 28 126 3.2 9.7 0.00 0.00 0.00 38 1002.3
20260504183106 28 120 0.0 8.0 0.00 0.00 0.00 39 1002.5
20260504182557 28 284 4.8 8.0 0.00 0.00 0.00 36 1002.5
20260504182101 28 134 0.0 4.8 0.00 0.00 0.00 37 1002.6
20260504181603 28 158 1.6 6.4 0.00 0.00 0.00 36 1002.6
20260504181057 28 115 1.6 6.4 0.00 0.00 0.00 37 1002.6
20260504180557 28 260 0.0 9.7 0.00 0.00 0.00 39 1002.5
20260504180117 28 256 1.6 9.7 0.00 0.00 0.00 39 1002.7
20260504175602 28 109 1.6 6.4 0.00 0.00 0.00 41 1002.7
20260504175058 28 235 0.0 6.4 0.00 0.00 0.00 41 1002.6
20260504174601 27 290 3.2 6.4 0.00 0.00 0.00 39 1002.7
20260504174058 28 0 1.6 4.8 0.00 0.00 0.00 40 1002.8
20260504173558 28 85 0.0 3.2 0.00 0.00 0.00 42 1002.8
20260504173106 28 256 0.0 6.4 0.00 0.00 0.00 42 1002.7
20260504172557 27 236 1.6 6.4 0.00 0.00 0.00 40 1002.8
20260504172057 27 293 0.0 6.4 0.00 0.00 0.00 41 1002.9
20260504171602 27 85 0.0 6.4 0.00 0.00 0.00 42 1003.1
20260504171059 27 276 1.6 6.4 0.00 0.00 0.00 39 1003.0
20260504170558 26 0 1.6 6.4 0.00 0.00 0.00 44 1003.1
20260504160107 24 271 0.0 9.7 0.00 0.00 0.00 45 1003.1
20260504151058 23 195 1.6 6.4 0.00 0.00 0.00 49 1003.2
20260504150558 22 311 1.6 9.7 0.00 0.00 0.00 52 1003.0
20260504141058 20 106 1.6 8.0 0.00 0.00 0.00 61 1003.3
20260504140558 19 276 1.6 8.0 0.00 0.00 0.00 61 1003.5
20260504140106 19 283 1.6 6.4 0.00 0.00 0.00 62 1003.4
20260504130559 16 0 0.0 3.2 0.00 0.00 0.00 68 1003.2
20260504110601 12 113 0.0 1.6 0.00 0.00 0.00 81 1003.2